Location: Unspecified
(0.0000°N, 0.0000°E)
Time: 00:21:54
(UTC+00:00)

Falcon 9 debris - Pass Details

Date: 26 May 2022
Orbit: 386 x 392 km, 53.0° (Epoch: 29 June)

Event Time Altitude Azimuth Distance (km) Brightness Sun altitude
Exits shadow 04:06:02 - 135° (SE) 1,755 ? -25.7°
Enters shadow 05:04:08 -72° 222° (SW) 12,515 ? -12.3°
Maximum altitude 05:42:37 34° 304° (NW) 662 ? -3.4°
